Date String (YYYY-MM-DD hh:mm:ss) UTC,Instrument flags,absolute air pressure of the measurement (hPa),sample flow rate (lpm),inlet stack bypass flow (lpm),air temperature of the measurement (°C),ambient temperature measured by the external sensor (°C),aerosol sample conditioner tube jacket temperature (°C),OPC LED temperature (°C),internal box temperature (°C),relative humidity of the measurement (%),span deviation,mass concentration of particles derived from Lorenz-Mie calculation of OPC scattering (μg/m³),mass concentration of particles derived from Lorenz-Mie calculation of OPC scattering (μg/m³),mass concentration of particles derived from Lorenz-Mie calculation of OPC scattering (μg/m³)
DateTimeUTC,F1_M11,P_M11,Q1_M11,Q2_M11,T1_M11,T2_M11,T3_M11,T4_M11,T5_M11,U1_M11,ZSPAN_M11,X2_M11,X0_M11,X1_M11
2023-10-23 04:00:00,SystemResetWarning,0824.9,5.00,000.00,028.7,027.4,000.0,037.0,030.3,14.3,0000.0,0005.31,0014.45,0003.75
2023-10-23 04:01:00,SystemResetWarning,0824.9,5.00,000.00,028.7,027.4,000.0,037.1,030.3,14.2,0000.0,0005.34,0015.01,0003.75
2023-10-23 04:02:00,SystemResetWarning,0824.8,5.00,000.00,028.7,027.4,000.0,037.1,030.3,14.2,0000.0,0005.32,0014.86,0003.75
2023-10-23 04:03:00,SystemResetWarning,0824.9,5.00,000.00,028.7,027.4,000.0,037.1,030.4,14.2,0000.0,0005.28,0014.90,0003.76
2023-10-23 04:04:00,SystemResetWarning,0824.9,5.00,000.00,028.7,027.4,000.0,037.1,030.4,14.2,0000.0,0005.26,0014.59,0003.76
2023-10-23 04:05:00,SystemResetWarning,0824.9,5.01,000.00,028.7,027.5,000.0,037.1,030.4,14.1,0000.0,0005.22,0014.09,0003.77
2023-10-23 04:06:00,SystemResetWarning,0824.9,5.01,000.00,028.7,027.5,000.0,037.1,030.4,14.1,0000.0,0005.16,0014.61,0003.78
2023-10-23 04:07:00,SystemResetWarning,0824.8,5.00,000.00,028.8,027.5,000.0,037.1,030.4,14.1,0000.0,0005.14,0014.98,0003.76
2023-10-23 04:08:00,SystemResetWarning,0824.8,5.00,000.00,028.8,027.5,000.0,037.1,030.4,14.1,0000.0,0005.15,0015.35,0003.76
2023-10-23 04:09:00,SystemResetWarning,0824.7,5.00,000.00,028.8,027.5,000.0,037.1,030.4,14.0,0000.0,0005.11,0015.30,0003.76
2023-10-23 04:10:00,SystemResetWarning,0824.7,5.00,000.00,028.8,027.5,000.0,037.2,030.4,14.0,0000.0,0005.06,0015.13,0003.76
2023-10-23 04:11:00,SystemResetWarning,0824.7,5.00,000.00,028.8,027.6,000.0,037.2,030.5,14.0,0000.0,0005.06,0015.78,0003.76
2023-10-23 04:12:00,SystemResetWarning,0824.8,5.00,000.00,028.8,027.6,000.0,037.2,030.5,14.0,0000.0,0005.04,0015.46,0003.76
2023-10-23 04:13:00,SystemResetWarning,0824.8,5.00,000.00,028.8,027.6,000.0,037.2,030.5,13.9,0000.0,0005.03,0016.51,0003.75
2023-10-23 04:14:00,SystemResetWarning,0824.8,5.00,000.00,028.9,027.6,000.0,037.2,030.5,13.9,0000.0,0005.05,0016.79,0003.75
2023-10-23 04:15:00,SystemResetWarning,0824.8,5.00,000.00,028.9,027.6,000.0,037.3,030.5,13.9,0000.0,0005.09,0016.41,0003.75
2023-10-23 04:16:00,SystemResetWarning,0824.8,5.00,000.00,028.9,027.6,000.0,037.3,030.5,13.9,0000.0,0005.13,0016.08,0003.75
2023-10-23 04:17:00,SystemResetWarning,0824.8,5.00,000.00,028.9,027.7,000.0,037.3,030.5,13.8,0000.0,0005.13,0015.97,0003.74
2023-10-23 04:18:00,SystemResetWarning,0824.8,5.00,000.00,028.9,027.7,000.0,037.3,030.5,13.8,0000.0,0005.11,0015.60,0003.75
2023-10-23 04:19:00,SystemResetWarning,0824.7,5.00,000.00,028.9,027.7,000.0,037.3,030.6,13.8,0000.0,0005.11,0015.79,0003.75
2023-10-23 04:20:00,SystemResetWarning,0824.7,5.00,000.00,028.9,027.7,000.0,037.3,030.6,13.8,0000.0,0005.13,0015.73,0003.75
2023-10-23 04:21:00,SystemResetWarning,0824.8,5.00,000.00,029.0,027.7,000.0,037.3,030.6,13.8,0000.0,0005.17,0016.02,0003.74
2023-10-23 04:22:00,SystemResetWarning,0824.7,5.00,000.00,029.0,027.7,000.0,037.3,030.6,13.8,0000.0,0005.16,0015.80,0003.74
2023-10-23 04:23:00,SystemResetWarning,0824.8,5.00,000.00,029.0,027.7,000.0,037.3,030.6,13.8,0000.0,0005.10,0015.99,0003.74
2023-10-23 04:24:00,SystemResetWarning,0824.8,5.01,000.00,029.0,027.7,000.0,037.4,030.6,13.8,0000.0,0005.04,0014.22,0003.74
2023-10-23 04:25:00,SystemResetWarning,0824.7,5.01,000.00,029.0,027.7,000.0,037.4,030.6,13.7,0000.0,0005.02,0013.55,0003.74
2023-10-23 04:26:00,SystemResetWarning,0824.8,5.00,000.00,029.0,027.7,000.0,037.4,030.6,13.7,0000.0,0004.95,0013.55,0003.73
2023-10-23 04:27:00,SystemResetWarning,0824.7,4.98,000.00,029.0,027.7,000.0,037.4,030.7,13.7,0000.0,0004.91,0013.57,0003.73
2023-10-23 04:28:00,SystemResetWarning,0824.7,5.00,000.00,029.0,027.1,000.0,037.4,030.7,13.7,0000.0,0004.94,0013.01,0003.74
2023-10-23 04:29:00,SystemResetWarning,0824.7,5.00,000.00,029.0,025.0,000.0,037.3,030.4,13.7,0000.0,0004.96,0012.88,0003.75
2023-10-23 04:30:00,SystemResetWarning,0824.7,5.01,000.00,028.9,024.3,000.0,037.2,030.2,13.8,0000.0,0004.92,0012.19,0003.75
2023-10-23 04:31:00,SystemResetWarning,0824.7,5.01,000.00,028.7,024.4,000.0,037.2,030.0,13.8,0000.0,0004.87,0012.12,0003.75
2023-10-23 04:32:00,SystemResetWarning,0824.7,4.99,000.00,028.6,024.8,000.0,037.2,029.9,13.9,0000.0,0004.85,0012.31,0003.76
2023-10-23 04:33:00,SystemResetWarning,0824.7,5.00,000.00,028.5,025.2,000.0,037.2,030.0,14.0,0000.0,0004.86,0012.54,0003.76
2023-10-23 04:34:00,SystemResetWarning,0824.7,5.01,000.00,028.5,025.5,000.0,037.2,030.0,14.1,0000.0,0004.90,0011.92,0003.76
2023-10-23 04:35:00,SystemResetWarning,0824.6,4.99,000.00,028.4,025.8,000.0,037.1,030.0,14.1,0000.0,0004.95,0012.02,0003.77
2023-10-23 04:36:00,SystemResetWarning,0824.7,4.99,000.00,028.4,026.0,000.0,037.1,030.0,14.1,0000.0,0004.96,0012.09,0003.76
2023-10-23 04:37:00,SystemResetWarning,0824.7,4.99,000.00,028.4,026.3,000.0,037.1,030.0,14.1,0000.0,0004.97,0012.29,0003.77
2023-10-23 04:38:00,SystemResetWarning,0824.7,5.00,000.00,028.4,026.4,000.0,037.1,030.0,14.1,0000.0,0004.95,0012.17,0003.77
2023-10-23 04:39:00,SystemResetWarning,0824.7,5.01,000.00,028.4,026.6,000.0,037.1,030.1,14.0,0000.0,0004.95,0011.86,0003.76
2023-10-23 04:40:00,SystemResetWarning,0824.7,5.01,000.00,028.4,026.7,000.0,037.0,030.1,14.0,0000.0,0004.94,0011.84,0003.75
2023-10-23 04:41:00,SystemResetWarning,0824.7,5.00,000.00,028.5,026.8,000.0,037.0,030.1,14.0,0000.0,0004.91,0012.55,0003.74
2023-10-23 04:42:00,SystemResetWarning,0824.7,4.99,000.00,028.5,026.9,000.0,037.0,030.1,14.0,0000.0,0004.93,0014.80,0003.75
2023-10-23 04:43:00,SystemResetWarning,0824.7,5.00,000.00,028.5,027.0,000.0,037.0,030.1,13.9,0000.0,0004.93,0015.46,0003.76
2023-10-23 04:44:00,SystemResetWarning,0824.7,5.00,000.00,028.5,027.0,000.0,037.0,030.2,13.9,0000.0,0004.91,0015.25,0003.76
2023-10-23 04:45:00,SystemResetWarning,0824.7,5.00,000.00,028.5,027.1,000.0,037.0,030.2,13.9,0000.0,0004.94,0015.24,0003.77
2023-10-23 04:46:00,SystemResetWarning,0824.7,5.00,000.00,028.5,027.1,000.0,037.0,030.2,13.8,0000.0,0004.92,0015.41,0003.77
2023-10-23 04:47:00,SystemResetWarning,0824.7,5.00,000.00,028.6,027.2,000.0,037.0,030.2,13.8,0000.0,0004.95,0015.61,0003.78
2023-10-23 04:48:00,SystemResetWarning,0824.6,5.00,000.00,028.6,027.2,000.0,037.0,030.2,13.7,0000.0,0004.98,0015.68,0003.78
2023-10-23 04:49:00,SystemResetWarning,0824.6,5.00,000.00,028.6,027.2,000.0,037.0,030.2,13.7,0000.0,0004.93,0016.04,0003.78
2023-10-23 04:50:00,SystemResetWarning,0824.6,5.00,000.00,028.6,027.2,000.0,037.0,030.2,13.7,0000.0,0004.89,0016.47,0003.79
2023-10-23 04:51:00,SystemResetWarning,0824.5,5.00,000.00,028.6,027.3,000.0,037.0,030.2,13.6,0000.0,0004.92,0017.84,0003.79
2023-10-23 04:52:00,SystemResetWarning,0824.5,5.00,000.00,028.6,027.3,000.0,037.0,030.3,13.6,0000.0,0004.96,0017.63,0003.81
2023-10-23 04:53:00,SystemResetWarning,0824.5,5.00,000.00,028.6,027.3,000.0,037.1,030.3,13.5,0000.0,0005.05,0015.62,0003.82
2023-10-23 04:54:00,SystemResetWarning,0824.5,5.00,000.00,028.7,027.3,000.0,037.1,030.3,13.5,0000.0,0005.06,0014.28,0003.82
2023-10-23 04:55:00,SystemResetWarning,0824.4,5.00,000.00,028.7,027.3,000.0,037.1,030.3,13.5,0000.0,0005.06,0013.96,0003.83
2023-10-23 04:56:00,SystemResetWarning,0824.4,5.00,000.00,028.7,027.3,000.0,037.1,030.3,13.4,0000.0,0005.04,0013.38,0003.83
2023-10-23 04:57:00,SystemResetWarning,0824.4,4.99,000.00,028.7,027.3,000.0,037.1,030.3,13.4,0000.0,0005.07,0013.41,0003.83
2023-10-23 04:58:00,SystemResetWarning,0824.4,5.00,000.00,028.7,027.4,000.0,037.1,030.3,13.4,0000.0,0005.01,0013.19,0003.82
2023-10-23 04:59:00,SystemResetWarning,0824.4,5.00,000.00,028.7,027.4,000.0,037.1,030.3,13.4,0000.0,0004.95,0012.73,0003.81
